Simultaneous Nadir Overpasses (SNOs) Predictions

Prediction of SNOs between NOAA-19 and NPP Satellite Orbit:

Table of predicted SNOs for the next 14.0 days since TLE Epoch: 4/15/2016
Index Date (NOAA-19) Time (NOAA-19) Lat,Lon (NOAA-19) SZA (NOAA-19 ) Date (NPP) Time (NPP) Lat,Lon (NPP) SZA (NPP ) Distance(km) Time Diff (sec)
1 04/27/2016 11:28:22 -81.01, 134.54 109.40 04/27/2016 11:29:38 -81.01, 134.43 109.42 2.00 76
2 04/27/2016 12:19:17 81.01, -58.08 70.58 04/27/2016 12:20:22 81.00, -57.94 70.52 2.54 65
3 04/27/2016 13:10:23 -81.01, 109.45 109.47 04/27/2016 13:11:07 -81.00, 109.39 109.50 1.30 44
4 04/27/2016 14:01:19 81.01, -83.54 70.55 04/27/2016 14:01:53 81.02, -83.71 70.56 3.19 34
5 04/27/2016 14:52:25 -81.01, 83.99 109.50 04/27/2016 14:52:37 -81.00, 83.99 109.51 0.75 12
6 04/27/2016 15:43:20 81.01,-108.63 70.48 04/27/2016 15:43:22 81.00,-108.75 70.49 2.21 2
7 04/27/2016 16:34:27 -81.01, 58.52 109.53 04/27/2016 16:34:07 -81.00, 58.58 109.53 1.19 20
8 04/27/2016 17:25:22 81.01,-134.09 70.45 04/27/2016 17:24:52 81.01,-134.16 70.47 1.22 30
9 04/27/2016 18:16:29 -81.01, 33.06 109.56 04/27/2016 18:15:37 -81.00, 33.17 109.55 2.06 52




NCC Satellite Simultaneous Nadir Overpasses (SNOs) Prediction Service
